Time,TemperatureF,DewpointF,PressureIn,WindDirection,WindDirectionDegrees,WindSpeedMPH,WindSpeedGustMPH,Humidity,HourlyPrecipIn,Conditions,Clouds,dailyrainin,SolarRadiationWatts/m^2,SoftwareType,DateUTC
2013-01-21 00:07:00,66.9,-99.9,30.01,SE,142,1.0,3.0,0,0.00,,,0.00,0,weatherlink.com 1.10,2013-01-21 04:07:00,
2013-01-21 00:22:00,67.8,-99.9,30.01,SSE,150,2.0,3.0,0,0.00,,,0.00,0,weatherlink.com 1.10,2013-01-21 04:22:00,
2013-01-21 00:37:00,67.7,-99.9,30.01,SSE,150,1.0,2.0,0,0.00,,,0.00,0,weatherlink.com 1.10,2013-01-21 04:37:00,
2013-01-21 00:52:00,66.7,-99.9,30.01,SSE,150,0.0,2.0,0,0.00,,,0.00,0,weatherlink.com 1.10,2013-01-21 04:52:00,
2013-01-21 01:07:00,67.3,-99.9,30.00,SSE,150,0.0,2.0,0,0.00,,,0.00,0,weatherlink.com 1.10,2013-01-21 05:07:00,
2013-01-21 01:23:00,66.8,-99.9,30.00,SSE,150,1.0,2.0,0,0.00,,,0.00,0,weatherlink.com 1.10,2013-01-21 05:23:00,
2013-01-21 01:38:00,66.3,-99.9,29.99,SSE,150,0.0,1.0,0,0.00,,,0.00,0,weatherlink.com 1.10,2013-01-21 05:38:00,
2013-01-21 01:53:00,65.9,-99.9,29.98,SSE,150,0.0,2.0,0,0.00,,,0.00,0,weatherlink.com 1.10,2013-01-21 05:53:00,
2013-01-21 02:08:00,66.3,-99.9,29.97,SSE,150,0.0,3.0,0,0.00,,,0.00,0,weatherlink.com 1.10,2013-01-21 06:08:00,
2013-01-21 02:23:00,66.5,-99.9,29.97,SSE,150,2.0,3.0,0,0.00,,,0.00,0,weatherlink.com 1.10,2013-01-21 06:23:00,
2013-01-21 02:38:00,65.6,-99.9,29.97,ENE,76,0.0,3.0,0,0.00,,,0.00,0,weatherlink.com 1.10,2013-01-21 06:38:00,
2013-01-21 02:53:00,66.6,-99.9,29.96,SSW,207,3.0,3.0,0,0.00,,,0.00,0,weatherlink.com 1.10,2013-01-21 06:53:00,
2013-01-21 03:08:00,66.8,-99.9,29.95,SSE,149,1.0,2.0,0,0.00,,,0.00,0,weatherlink.com 1.10,2013-01-21 07:08:00,
2013-01-21 03:23:00,65.9,-99.9,29.95,SSE,150,1.0,3.0,0,0.00,,,0.00,0,weatherlink.com 1.10,2013-01-21 07:23:00,
2013-01-21 03:38:00,65.8,-99.9,29.95,SSE,149,0.0,2.0,0,0.00,,,0.00,0,weatherlink.com 1.10,2013-01-21 07:38:00,
2013-01-21 03:53:00,66.2,-99.9,29.95,SSE,150,0.0,1.0,0,0.00,,,0.00,0,weatherlink.com 1.10,2013-01-21 07:53:00,
2013-01-21 04:08:00,65.8,-99.9,29.95,NE,49,1.0,3.0,0,0.00,,,0.00,0,weatherlink.com 1.10,2013-01-21 08:08:00,
2013-01-21 04:23:00,65.8,-99.9,29.95,NE,49,0.0,3.0,0,0.00,,,0.00,0,weatherlink.com 1.10,2013-01-21 08:23:00,
2013-01-21 04:38:00,65.9,-99.9,29.95,NE,49,0.0,2.0,0,0.00,,,0.00,0,weatherlink.com 1.10,2013-01-21 08:38:00,
2013-01-21 04:54:00,65.5,-99.9,29.95,South,180,2.0,3.0,0,0.00,,,0.00,0,weatherlink.com 1.10,2013-01-21 08:54:00,
2013-01-21 05:09:00,65.8,-99.9,29.96,South,184,1.0,3.0,0,0.00,,,0.00,0,weatherlink.com 1.10,2013-01-21 09:09:00,
2013-01-21 05:24:00,65.4,-99.9,29.96,South,184,0.0,1.0,0,0.00,,,0.00,0,weatherlink.com 1.10,2013-01-21 09:24:00,
2013-01-21 05:39:00,66.0,-99.9,29.97,South,184,2.0,2.0,0,0.00,,,0.00,0,weatherlink.com 1.10,2013-01-21 09:39:00,
2013-01-21 05:54:00,66.3,-99.9,29.97,South,184,0.0,1.0,0,0.00,,,0.00,0,weatherlink.com 1.10,2013-01-21 09:54:00,
2013-01-21 06:09:00,66.6,-99.9,29.96,South,184,0.0,2.0,0,0.00,,,0.00,0,weatherlink.com 1.10,2013-01-21 10:09:00,
2013-01-21 06:24:00,67.1,-99.9,29.96,South,184,0.0,1.0,0,0.00,,,0.00,0,weatherlink.com 1.10,2013-01-21 10:24:00,
2013-01-21 06:39:00,66.7,-99.9,29.96,South,184,0.0,1.0,0,0.00,,,0.00,0,weatherlink.com 1.10,2013-01-21 10:39:00,
2013-01-21 06:54:00,65.9,-99.9,29.96,South,184,0.0,2.0,0,0.00,,,0.00,0,weatherlink.com 1.10,2013-01-21 10:54:00,
2013-01-21 07:09:00,66.7,-99.9,29.96,SE,138,0.0,4.0,0,0.00,,,0.00,12,weatherlink.com 1.10,2013-01-21 11:09:00,
2013-01-21 07:24:00,65.6,-99.9,29.97,SE,141,0.0,3.0,0,0.00,,,0.00,30,weatherlink.com 1.10,2013-01-21 11:24:00,
2013-01-21 07:39:00,65.7,-99.9,29.97,South,180,0.0,1.0,0,0.00,,,0.00,70,weatherlink.com 1.10,2013-01-21 11:39:00,
2013-01-21 07:54:00,66.2,-99.9,29.97,ENE,64,0.0,2.0,0,0.00,,,0.00,125,weatherlink.com 1.10,2013-01-21 11:54:00,
2013-01-21 08:09:00,66.2,-99.9,29.97,ENE,64,0.0,2.0,0,0.00,,,0.00,179,weatherlink.com 1.10,2013-01-21 12:09:00,
2013-01-21 08:25:00,66.4,-99.9,29.98,ENE,64,1.0,2.0,0,0.00,,,0.00,234,weatherlink.com 1.10,2013-01-21 12:25:00,
2013-01-21 08:40:00,66.5,-99.9,29.98,West,265,1.0,4.0,0,0.00,,,0.00,297,weatherlink.com 1.10,2013-01-21 12:40:00,
2013-01-21 08:55:00,67.9,-99.9,29.99,South,173,1.0,2.0,0,0.00,,,0.00,318,weatherlink.com 1.10,2013-01-21 12:55:00,
2013-01-21 09:10:00,69.9,-99.9,29.99,East,90,1.0,3.0,0,0.00,,,0.00,434,weatherlink.com 1.10,2013-01-21 13:10:00,
2013-01-21 09:25:00,71.6,-99.9,30.00,ENE,71,2.0,4.0,0,0.00,,,0.00,178,weatherlink.com 1.10,2013-01-21 13:25:00,
2013-01-21 09:40:00,71.9,-99.9,30.01,NE,50,0.0,5.0,0,0.00,,,0.00,125,weatherlink.com 1.10,2013-01-21 13:40:00,
2013-01-21 09:55:00,72.5,-99.9,30.01,ENE,73,4.0,5.0,0,0.00,,,0.00,185,weatherlink.com 1.10,2013-01-21 13:55:00,
2013-01-21 10:10:00,73.3,-99.9,30.01,East,100,2.0,7.0,0,0.00,,,0.00,188,weatherlink.com 1.10,2013-01-21 14:10:00,
2013-01-21 10:25:00,74.0,-99.9,30.01,ENE,58,0.0,5.0,0,0.00,,,0.00,738,weatherlink.com 1.10,2013-01-21 14:25:00,
2013-01-21 10:40:00,76.7,-99.9,30.01,ENE,73,0.0,7.0,0,0.00,,,0.00,301,weatherlink.com 1.10,2013-01-21 14:40:00,
2013-01-21 10:55:00,77.9,-99.9,30.00,NE,55,2.0,5.0,0,0.00,,,0.00,362,weatherlink.com 1.10,2013-01-21 14:55:00,
2013-01-21 11:10:00,76.8,-99.9,30.01,ESE,111,2.0,9.0,0,0.00,,,0.00,290,weatherlink.com 1.10,2013-01-21 15:10:00,
2013-01-21 11:25:00,76.3,-99.9,30.01,ENE,63,1.0,9.0,0,0.00,,,0.00,348,weatherlink.com 1.10,2013-01-21 15:25:00,
2013-01-21 11:41:00,75.5,-99.9,30.01,East,88,2.0,8.0,0,0.00,,,0.00,281,weatherlink.com 1.10,2013-01-21 15:41:00,
2013-01-21 11:56:00,76.4,-99.9,30.00,ENE,62,3.0,5.0,0,0.00,,,0.00,439,weatherlink.com 1.10,2013-01-21 15:56:00,
2013-01-21 12:11:00,81.5,8.0,29.99,ESE,121,0.0,4.0,6,0.00,,,0.00,911,weatherlink.com 1.10,2013-01-21 16:11:00,
2013-01-21 12:26:00,81.3,-1.0,29.99,NE,52,1.0,5.0,4,0.00,,,0.00,939,weatherlink.com 1.10,2013-01-21 16:26:00,
2013-01-21 12:41:00,76.4,-99.9,29.99,ENE,67,0.0,7.0,0,0.00,,,0.00,227,weatherlink.com 1.10,2013-01-21 16:41:00,
2013-01-21 12:56:00,76.9,-99.9,29.98,East,79,0.0,6.0,0,0.00,,,0.00,420,weatherlink.com 1.10,2013-01-21 16:56:00,
2013-01-21 13:11:00,79.8,-16.0,29.97,NE,55,1.0,8.0,2,0.00,,,0.00,1116,weatherlink.com 1.10,2013-01-21 17:11:00,
2013-01-21 13:26:00,79.7,-99.9,29.96,SSE,165,0.0,13.0,0,0.00,,,0.00,336,weatherlink.com 1.10,2013-01-21 17:26:00,
2013-01-21 13:41:00,81.6,46.0,29.96,ESE,107,1.0,7.0,29,0.00,,,0.00,269,weatherlink.com 1.10,2013-01-21 17:41:00,
2013-01-21 13:56:00,81.0,40.0,29.95,South,180,4.0,9.0,23,0.00,,,0.00,889,weatherlink.com 1.10,2013-01-21 17:56:00,
2013-01-21 14:13:00,80.3,29.0,29.94,East,100,2.0,13.0,15,0.00,,,0.00,529,weatherlink.com 1.10,2013-01-21 18:13:00,
2013-01-21 14:26:00,81.6,39.0,29.94,ENE,65,0.0,8.0,22,0.00,,,0.00,564,weatherlink.com 1.10,2013-01-21 18:26:00,
2013-01-21 14:41:00,80.4,36.0,29.93,SE,126,0.0,7.0,20,0.00,,,0.00,262,weatherlink.com 1.10,2013-01-21 18:41:00,
2013-01-21 14:56:00,78.7,-30.0,29.93,ESE,104,0.0,4.0,1,0.00,,,0.00,128,weatherlink.com 1.10,2013-01-21 18:56:00,
2013-01-21 15:12:00,77.7,-99.9,29.93,ESE,103,3.0,8.0,0,0.00,,,0.00,104,weatherlink.com 1.10,2013-01-21 19:12:00,
2013-01-21 15:27:00,78.9,-99.9,29.93,South,181,4.0,10.0,0,0.00,,,0.00,691,weatherlink.com 1.10,2013-01-21 19:27:00,
2013-01-21 15:42:00,80.6,-99.9,29.93,ESE,111,3.0,7.0,0,0.00,,,0.00,225,weatherlink.com 1.10,2013-01-21 19:42:00,
2013-01-21 15:57:00,77.5,-99.9,29.93,SE,140,5.0,7.0,0,0.00,,,0.00,88,weatherlink.com 1.10,2013-01-21 19:57:00,
2013-01-21 16:12:00,77.4,-99.9,29.93,ESE,121,3.0,8.0,0,0.00,,,0.00,422,weatherlink.com 1.10,2013-01-21 20:12:00,
2013-01-21 16:27:00,77.3,-99.9,29.93,SE,146,2.0,9.0,0,0.00,,,0.00,374,weatherlink.com 1.10,2013-01-21 20:27:00,
2013-01-21 16:42:00,77.8,-99.9,29.93,ESE,121,2.0,9.0,0,0.00,,,0.00,315,weatherlink.com 1.10,2013-01-21 20:42:00,
2013-01-21 16:57:00,78.2,-99.9,29.94,SE,142,5.0,10.0,0,0.00,,,0.00,260,weatherlink.com 1.10,2013-01-21 20:57:00,
2013-01-21 17:12:00,78.6,-99.9,29.94,SE,138,2.0,7.0,0,0.00,,,0.00,227,weatherlink.com 1.10,2013-01-21 21:12:00,
2013-01-21 17:27:00,78.5,6.0,29.94,East,101,1.0,5.0,6,0.00,,,0.00,118,weatherlink.com 1.10,2013-01-21 21:27:00,
2013-01-21 17:42:00,77.4,-18.0,29.95,SE,136,3.0,3.0,2,0.00,,,0.00,72,weatherlink.com 1.10,2013-01-21 21:42:00,
2013-01-21 17:57:00,76.7,-99.9,29.95,South,184,1.0,3.0,0,0.00,,,0.00,19,weatherlink.com 1.10,2013-01-21 21:57:00,
2013-01-21 18:12:00,75.3,-99.9,29.95,East,80,0.0,4.0,0,0.00,,,0.00,5,weatherlink.com 1.10,2013-01-21 22:12:00,
2013-01-21 18:27:00,74.2,-99.9,29.96,East,80,0.0,3.0,0,0.00,,,0.00,0,weatherlink.com 1.10,2013-01-21 22:27:00,
2013-01-21 18:43:00,72.9,-99.9,29.96,SE,144,2.0,4.0,0,0.00,,,0.00,0,weatherlink.com 1.10,2013-01-21 22:43:00,
2013-01-21 18:57:00,72.3,-99.9,29.96,ESE,119,2.0,7.0,0,0.00,,,0.00,0,weatherlink.com 1.10,2013-01-21 22:57:00,
2013-01-21 19:13:00,72.0,-99.9,29.97,SSE,148,0.0,5.0,0,0.00,,,0.00,0,weatherlink.com 1.10,2013-01-21 23:13:00,
2013-01-21 19:28:00,72.1,-99.9,29.98,SSE,148,2.0,3.0,0,0.00,,,0.00,0,weatherlink.com 1.10,2013-01-21 23:28:00,
2013-01-21 19:43:00,72.1,-99.9,29.99,ENE,74,0.0,4.0,0,0.00,,,0.00,0,weatherlink.com 1.10,2013-01-21 23:43:00,
2013-01-21 19:58:00,71.7,-99.9,29.99,East,80,5.0,5.0,0,0.00,,,0.00,0,weatherlink.com 1.10,2013-01-21 23:58:00,
2013-01-21 20:13:00,71.6,-99.9,30.00,ESE,120,0.0,3.0,0,0.00,,,0.00,0,weatherlink.com 1.10,2013-01-22 00:13:00,
2013-01-21 20:28:00,71.6,-99.9,30.01,ESE,109,0.0,4.0,0,0.00,,,0.00,0,weatherlink.com 1.10,2013-01-22 00:28:00,
2013-01-21 20:43:00,71.6,-99.9,30.01,SE,145,1.0,6.0,0,0.00,,,0.00,0,weatherlink.com 1.10,2013-01-22 00:43:00,
2013-01-21 20:58:00,71.4,-99.9,30.01,SE,145,0.0,3.0,0,0.00,,,0.00,0,weatherlink.com 1.10,2013-01-22 00:58:00,
2013-01-21 21:13:00,71.4,-99.9,30.01,SE,146,1.0,6.0,0,0.00,,,0.00,0,weatherlink.com 1.10,2013-01-22 01:13:00,
2013-01-21 21:28:00,71.4,-99.9,30.02,SSE,157,0.0,8.0,0,0.00,,,0.00,0,weatherlink.com 1.10,2013-01-22 01:28:00,
2013-01-21 21:43:00,71.3,-99.9,30.02,SSE,156,0.0,3.0,0,0.00,,,0.00,0,weatherlink.com 1.10,2013-01-22 01:43:00,
2013-01-21 21:59:00,71.3,-99.9,30.02,SSE,168,0.0,4.0,0,0.00,,,0.00,0,weatherlink.com 1.10,2013-01-22 01:59:00,
2013-01-21 22:14:00,71.3,-99.9,30.02,SSE,162,0.0,2.0,0,0.00,,,0.00,0,weatherlink.com 1.10,2013-01-22 02:14:00,
2013-01-21 22:29:00,71.0,-99.9,30.02,SSE,162,0.0,2.0,0,0.00,,,0.00,0,weatherlink.com 1.10,2013-01-22 02:29:00,
2013-01-21 22:44:00,71.0,-99.9,30.02,SSE,162,0.0,1.0,0,0.00,,,0.00,0,weatherlink.com 1.10,2013-01-22 02:44:00,
2013-01-21 22:59:00,70.9,-99.9,30.01,SSE,162,0.0,1.0,0,0.00,,,0.00,0,weatherlink.com 1.10,2013-01-22 02:59:00,
2013-01-21 23:14:00,71.0,-99.9,30.02,SSE,162,0.0,1.0,0,0.00,,,0.00,0,weatherlink.com 1.10,2013-01-22 03:14:00,
2013-01-21 23:29:00,70.9,-99.9,30.02,SSE,162,0.0,1.0,0,0.00,,,0.00,0,weatherlink.com 1.10,2013-01-22 03:29:00,
2013-01-21 23:44:00,70.8,-99.9,30.01,SSE,161,3.0,4.0,0,0.00,,,0.00,0,weatherlink.com 1.10,2013-01-22 03:44:00,
2013-01-21 23:59:00,71.2,-99.9,30.01,SE,143,1.0,6.0,0,0.00,,,0.00,0,weatherlink.com 1.10,2013-01-22 03:59:00,